Location: Newark
(12.4436°N, 0.6167°W)
Time: 06:21:44
(UTC+00:00)

Vanguard 1 - Pass Details

Date: 12 December 2019
Orbit: 651 x 3832 km, 34.2° (Epoch: 17 January)

Event Time Altitude Azimuth Distance (km) Brightness Sun altitude
Rises 01:03:12 0° 229° (SW) 5,995 - -70.8°
Reaches altitude 10° 01:06:30 10° 228° (SW) 5,321 - -70.2°
Maximum altitude 01:24:24 80° 142° (SE) 3,615 - -66.4°
Exits shadow 01:34:25 47° 64° (ENE) 4,559 13.2 -64.3°
Drops below altitude 10° 01:48:19 10° 58° (ENE) 6,780 14.4 -61.3°
Sets 01:53:12 0° 58° (ENE) 7,620 14.8 -60.2°
